{"data":{"norad_id":66987,"epoch":"2026-09-20T07:34:57.472608Z","epoch_age_seconds":98291,"freshness":"FRESH","line1":"1 66987U 25288AE  26263.31594297  .00014836  00000+0  54743-3 0  9997","line2":"2 66987  43.0001   4.2444 0000304 291.2216  68.8603 15.27588419 45059","mean_motion":15.27588419,"eccentricity":3.04e-5,"inclination_deg":43.0001,"raan_deg":4.2444,"arg_perigee_deg":291.2216,"mean_anomaly_deg":68.8603,"bstar":0.00054743,"rev_number":4505,"period_min":94.266229181199,"perigee_km":482.81530734976,"apogee_km":483.23246593167,"semimajor_km":6861.1608866407,"source":"CELESTRAK","updated_at":"2026-09-21T09:00:36.067887Z"}}